Wind_Speed
8 8 8 8 8 8 8 8 8 9 9 9 9 9 8 8 7 7 7 6 6 6 5 5 5 4 3 3 3 3 3 3 3 3 4 4 4 4 5 5 6 6 6
7 7 7 7 8 8 8 8 8 8 8 8 8 8 8 7 8 7 7 7 7 7 7 6 5 4 3 3 3 3 3 4 4 4 4 4 5 5 6 7 7 7 7
7 6 6 7 7 7 7 7 7 8 8 8 8 8 8 8 7 7 8 8 8 8 7 7 7 5 4 4 4 4 4 4 4 4 4 4 5 5 6 7 7 8 8
6 6 6 6 6 6 7 7 7 7 7 8 8 8 7 7 8 8 8 8 8 8 8 7 7 6 4 4 4 5 5 4 3 3 4 4 5 5 6 6 6 7 7
5 5 5 6 6 6 7 7 6 7 7 7 8 8 7 7 8 8 8 8 8 9 8 8 7 5 4 5 5 5 4 4 4 4 5 4 5 5 5 5 5 6 6
5 5 5 6 6 6 6 7 7 7 7 7 8 8 8 8 8 8 9 9 9 9 9 9 7 6 5 5 5 5 5 5 4 5 6 5 5 5 5 6 6 6 6
6 5 5 5 6 7 7 7 7 7 7 8 8 8 8 9 9 9 10 10 9 9 9 9 8 7 6 6 4 4 5 6 6 6 6 6 7 7 7 7 7 8 8
6 5 5 5 6 7 8 8 7 7 8 8 8 9 9 9 9 9 10 10 9 9 9 8 8 8 8 7 6 6 7 6 6 7 7 7 7 8 7 8 8 9 10
9 7 6 6 6 7 7 8 8 8 8 9 9 9 10 10 10 10 11 11 10 10 9 9 9 9 9 9 9 8 7 7 7 7 6 6 7 7 7 7 8 9 10
9 8 8 8 8 8 8 8 9 9 9 10 10 10 11 11 11 11 11 12 11 10 10 9 9 9 9 8 8 7 7 7 7 7 7 7 7 7 7 8 8 9 10
9 9 9 9 9 9 9 9 10 10 10 11 11 11 12 12 12 12 12 12 12 11 11 11 10 10 9 8 7 7 8 8 8 8 8 7 7 8 8 9 9 9 10
10 10 10 10 10 9 9 10 10 11 11 12 12 12 13 14 14 14 13 13 13 13 12 12 12 12 10 9 9 9 9 9 9 8 8 8 9 9 9 10 10 11 12
11 11 11 10 10 10 10 10 11 12 12 13 13 14 15 15 16 15 15 15 14 14 13 13 13 12 12 11 10 10 10 10 10 9 10 10 10 10 11 12 12 13 14
13 13 12 13 12 12 11 11 12 12 13 13 14 15 15 16 16 17 16 15 14 14 13 12 12 12 12 12 11 11 10 10 11 11 11 12 12 12 13 13 14 15 16
14 14 14 14 14 13 12 13 14 14 14 14 15 15 15 16 16 17 16 15 15 14 13 13 13 12 12 12 12 12 11 12 13 12 12 13 13 13 14 14 15 16 17
15 16 16 16 15 14 14 15 15 15 16 16 16 16 16 16 16 17 15 14 14 14 13 13 13 12 12 13 13 12 12 13 13 12 13 14 15 15 16 16 17 18 19
16 17 17 16 16 16 16 17 17 17 17 17 17 17 17 17 17 16 15 15 14 14 14 13 13 13 13 13 13 13 13 13 13 13 13 14 16 17 18 18 19 20 20
16 17 17 17 17 16 17 18 18 18 18 17 18 18 18 18 18 17 16 16 16 15 15 15 14 15 15 14 15 15 15 15 15 15 15 16 17 19 20 21 21 21 21
18 18 18 18 17 17 18 18 19 19 17 17 18 18 19 19 18 18 17 16 16 16 17 17 16 15 16 15 15 15 16 17 17 17 18 19 19 20 21 21 22 22 22
20 20 20 19 19 18 19 19 19 19 19 18 18 19 18 18 18 18 17 17 18 17 18 18 17 17 17 17 16 17 17 18 18 19 20 21 22 22 22 23 23 23 23
23 23 23 22 21 20 19 20 20 20 19 19 18 19 18 19 19 18 18 19 18 18 18 18 18 19 18 18 18 19 19 20 20 20 22 22 23 24 24 24 24 25 25
24 25 25 24 23 21 20 21 21 20 20 19 19 19 20 19 18 18 19 19 19 19 19 19 19 20 20 20 21 21 21 21 21 22 23 24 24 24 24 24 25 25 26
25 25 25 24 23 21 22 21 21 20 20 20 20 21 20 20 20 19 19 19 19 20 20 20 21 22 22 21 22 23 23 23 23 23 24 24 24 24 24 25 25 26 27
26 26 25 24 23 23 23 22 22 21 21 21 21 21 21 21 22 22 21 21 22 21 22 22 22 22 23 23 23 23 23 24 24 24 24 24 24 25 25 25 26 26 26
27 26 26 25 25 24 23 22 23 22 22 22 21 22 22 22 23 23 23 23 23 23 23 23 23 23 22 22 23 23 24 24 24 24 24 25 25 25 25 26 26 26 26
26 26 26 26 25 25 24 24 24 24 23 22 23 23 23 23 23 23 24 24 23 23 23 23 24 23 23 24 23 23 23 24 24 24 25 25 25 24 25 25 26 26 27
Wind_Direction
30 30 32 33 32 33 33 32 35 34 26 23 21 22 23 23 18 17 18 13 9 3 358 354 348 339 330 313 300 285 268 262 266 277 278 281 280 275 267 268 268 267 265
32 29 27 28 28 28 30 29 27 26 24 22 22 20 22 21 18 16 12 10 6 2 359 359 357 338 330 322 305 288 268 266 270 280 278 271 273 277 274 272 272 270 264
23 27 23 20 22 22 20 20 17 16 16 16 15 16 19 18 13 9 8 7 5 1 359 357 350 334 323 313 297 283 275 268 265 266 270 273 278 273 274 274 264 263 264
6 16 19 18 16 12 10 10 7 5 7 8 7 11 15 13 7 8 8 4 1 357 353 348 344 338 327 316 298 285 277 270 266 264 270 271 276 278 276 270 258 259 260
345 354 4 14 11 6 4 4 2 2 3 3 4 7 7 3 357 1 3 0 357 356 354 348 346 337 326 315 300 286 282 274 266 264 265 269 272 277 273 271 265 260 260
325 333 351 3 8 5 1 360 357 359 359 357 358 359 1 358 356 357 357 353 351 351 350 347 344 336 324 315 305 288 282 273 267 266 266 268 272 275 274 272 272 268 269
315 318 331 345 353 357 358 356 357 357 351 351 351 349 350 349 348 349 347 344 341 341 342 343 340 332 325 316 304 296 287 281 275 271 268 269 275 281 278 272 270 272 276
297 308 314 319 330 338 346 350 347 348 348 344 342 341 340 337 338 339 342 340 337 336 334 333 333 327 318 310 297 298 287 280 278 278 274 274 277 280 278 273 271 274 277
302 303 300 304 312 322 330 335 334 332 333 335 336 335 331 330 331 333 337 337 334 330 329 327 329 329 321 315 305 297 290 290 284 280 283 283 286 286 284 282 280 280 282
292 294 287 289 298 308 316 320 321 322 321 322 327 331 331 330 326 327 331 329 326 323 322 321 322 324 319 317 317 305 302 299 293 283 280 280 285 288 292 291 290 288 288
283 288 287 285 291 299 308 315 318 315 314 318 322 324 325 325 325 323 321 320 320 320 320 317 316 316 316 312 308 303 297 294 295 293 286 282 285 288 293 296 295 294 292
277 289 287 284 292 297 300 305 313 315 315 316 317 318 319 320 320 317 314 312 312 311 310 310 310 310 309 303 301 298 293 293 294 291 293 286 284 286 289 289 290 293 295
273 284 286 286 290 291 295 300 306 310 312 314 315 315 315 316 317 315 310 309 309 306 303 305 305 306 306 301 295 294 294 290 288 286 291 292 286 284 285 286 286 290 294
275 280 283 288 287 288 289 294 303 306 308 310 312 314 314 313 317 317 312 310 308 304 303 304 305 306 306 302 295 292 293 289 288 288 291 294 290 286 287 287 289 292 294
270 275 281 284 285 288 291 294 298 301 305 308 311 314 316 314 313 314 313 312 311 308 306 306 303 302 302 300 298 297 295 292 291 290 293 297 294 292 292 291 292 293 293
272 273 278 281 282 285 287 291 293 297 301 304 307 311 313 314 313 311 311 315 314 310 309 307 305 303 301 300 298 295 293 295 294 293 295 296 299 297 296 295 294 294 293
271 273 276 277 278 281 283 286 289 293 295 297 301 305 308 309 312 310 310 311 311 311 310 308 307 306 304 300 296 292 293 295 294 293 292 296 298 300 302 299 298 298 294
271 273 276 279 278 280 282 284 287 293 295 294 297 300 303 305 307 309 307 307 307 307 308 305 305 305 305 304 299 294 294 293 294 294 294 295 298 301 301 301 300 299 298
274 276 280 282 281 283 284 286 291 295 296 293 295 298 302 304 305 305 303 303 304 304 306 304 305 304 304 303 302 300 297 293 292 292 294 295 296 298 299 299 299 299 299
274 279 284 284 285 288 287 289 290 293 294 293 294 297 298 302 302 303 302 301 302 302 304 302 301 302 302 300 298 297 297 295 294 294 294 296 297 298 297 298 299 299 298
276 279 280 282 284 286 285 288 289 291 293 292 294 294 292 301 303 300 302 304 300 298 299 299 299 299 299 298 297 298 298 296 296 296 297 298 299 298 298 299 301 300 298
276 279 280 282 284 285 285 286 287 289 291 291 292 292 291 296 301 300 299 300 298 296 295 295 296 295 294 293 294 295 295 296 296 297 296 297 298 298 299 300 300 300 300
274 278 280 282 284 285 285 284 286 287 288 289 290 292 293 292 299 300 300 299 298 298 296 294 294 293 291 289 291 293 293 294 296 298 298 298 296 297 298 299 299 300 300
275 278 279 281 282 284 283 282 282 283 285 285 286 290 293 293 296 298 301 302 301 300 298 295 295 295 292 289 290 291 293 294 295 296 297 297 295 294 296 298 298 299 300
273 275 276 277 279 280 281 281 282 281 282 284 286 289 291 293 297 299 299 300 300 299 299 297 297 297 294 292 292 293 293 294 295 296 296 296 296 296 297 298 298 298 298
271 272 273 275 276 276 277 278 278 278 281 285 288 288 288 292 296 297 298 298 298 297 296 297 297 296 295 294 293 293 293 295 297 296 296 296 296 296 296 297 298 298 298
Height
5926 5925 5924 5923 5922 5922 5921 5920 5918 5917 5916 5914 5913 5911 5910 5909 5907 5906 5905 5903 5901 5900 5899 5898 5897 5896 5895 5894 5893 5893 5892 5892 5891 5891 5891 5890 5890 5889 5889 5888 5888 5887 5887
5927 5926 5925 5924 5923 5922 5921 5920 5919 5917 5916 5914 5913 5911 5910 5909 5907 5906 5905 5903 5902 5900 5898 5897 5896 5895 5894 5893 5892 5892 5891 5891 5890 5890 5889 5889 5889 5888 5887 5887 5886 5885 5885
5927 5926 5925 5924 5923 5922 5921 5920 5919 5917 5916 5915 5913 5911 5910 5909 5907 5906 5904 5903 5901 5899 5898 5896 5895 5894 5893 5892 5892 5891 5890 5889 5889 5888 5888 5888 5887 5886 5886 5885 5884 5884 5883
5927 5926 5925 5924 5923 5922 5921 5920 5919 5918 5916 5915 5913 5911 5910 5909 5907 5905 5904 5903 5901 5899 5897 5895 5894 5892 5891 5891 5890 5890 5889 5888 5888 5887 5887 5886 5885 5885 5884 5883 5882 5882 5881
5927 5926 5925 5924 5923 5922 5921 5920 5919 5917 5916 5915 5913 5912 5910 5909 5907 5906 5904 5902 5900 5898 5897 5895 5893 5891 5890 5889 5889 5888 5888 5887 5887 5886 5885 5885 5884 5883 5882 5881 5880 5880 5880
5926 5926 5925 5924 5923 5922 5921 5920 5919 5917 5916 5915 5913 5912 5910 5908 5907 5905 5903 5901 5899 5898 5896 5894 5892 5890 5889 5888 5887 5887 5886 5886 5885 5884 5883 5883 5882 5881 5880 5879 5878 5878 5878
5925 5925 5924 5923 5922 5921 5920 5919 5918 5917 5916 5914 5913 5911 5910 5908 5906 5904 5902 5900 5898 5896 5894 5893 5891 5889 5888 5887 5885 5885 5884 5884 5883 5882 5882 5881 5880 5879 5878 5877 5876 5876 5876
5923 5923 5923 5922 5922 5921 5920 5919 5917 5916 5915 5914 5912 5910 5909 5907 5905 5903 5901 5899 5896 5895 5893 5891 5889 5888 5886 5885 5884 5883 5882 5881 5881 5880 5880 5879 5878 5877 5876 5875 5874 5874 5873
5921 5921 5921 5921 5920 5919 5919 5918 5917 5916 5914 5913 5911 5909 5908 5906 5904 5902 5899 5897 5895 5893 5892 5890 5888 5886 5884 5883 5881 5881 5880 5879 5878 5878 5877 5877 5876 5875 5874 5873 5872 5871 5870
5919 5919 5919 5919 5919 5918 5917 5916 5915 5914 5913 5911 5909 5908 5906 5904 5902 5900 5898 5895 5893 5891 5889 5888 5886 5884 5882 5881 5879 5878 5878 5877 5876 5876 5875 5874 5873 5872 5871 5870 5869 5868 5868
5917 5917 5917 5917 5916 5916 5915 5914 5913 5912 5911 5909 5907 5906 5904 5902 5900 5898 5895 5893 5891 5889 5887 5885 5883 5882 5880 5879 5878 5876 5876 5875 5874 5873 5872 5871 5871 5870 5869 5868 5867 5865 5864
5914 5914 5915 5915 5914 5913 5913 5912 5911 5909 5908 5907 5905 5904 5902 5900 5897 5895 5893 5891 5888 5886 5885 5883 5881 5879 5878 5876 5875 5874 5873 5872 5872 5871 5870 5869 5868 5867 5866 5865 5864 5863 5861
5911 5912 5912 5912 5911 5911 5910 5909 5908 5907 5906 5904 5903 5901 5899 5897 5894 5892 5890 5887 5885 5883 5881 5879 5878 5876 5875 5874 5873 5872 5871 5870 5869 5868 5867 5865 5864 5864 5863 5862 5860 5859 5858
5908 5908 5908 5908 5908 5908 5907 5906 5905 5904 5903 5901 5900 5898 5895 5893 5891 5888 5886 5884 5882 5880 5878 5876 5875 5873 5872 5870 5869 5868 5867 5866 5865 5864 5863 5862 5861 5860 5859 5857 5856 5855 5853
5904 5904 5904 5904 5904 5904 5903 5902 5902 5900 5899 5898 5896 5894 5892 5889 5887 5885 5882 5880 5878 5877 5875 5873 5872 5870 5869 5867 5866 5865 5864 5863 5862 5861 5860 5859 5857 5856 5855 5853 5852 5850 5849
5899 5899 5900 5900 5900 5900 5899 5898 5897 5896 5895 5894 5892 5890 5888 5886 5883 5881 5879 5877 5875 5873 5872 5870 5869 5867 5865 5864 5863 5862 5860 5859 5858 5858 5856 5855 5854 5852 5850 5849 5847 5845 5844
5894 5895 5895 5896 5895 5895 5895 5894 5893 5892 5890 5889 5888 5887 5885 5882 5880 5878 5876 5875 5872 5870 5868 5867 5865 5863 5862 5861 5859 5858 5857 5856 5855 5854 5853 5851 5850 5848 5846 5844 5842 5840 5838
5890 5890 5891 5890 5890 5890 5889 5889 5888 5887 5885 5884 5883 5882 5880 5878 5876 5874 5873 5871 5869 5867 5865 5863 5862 5860 5859 5857 5856 5854 5853 5852 5851 5850 5849 5847 5845 5843 5841 5839 5837 5834 5832
5886 5886 5886 5885 5884 5884 5884 5884 5883 5882 5880 5879 5878 5877 5876 5874 5872 5870 5869 5867 5865 5863 5861 5859 5858 5856 5855 5853 5851 5850 5849 5848 5847 5845 5844 5842 5840 5838 5836 5833 5831 5828 5826
5881 5881 5881 5880 5879 5879 5878 5878 5878 5877 5876 5875 5874 5873 5871 5869 5867 5866 5864 5863 5861 5859 5857 5855 5853 5852 5850 5848 5847 5846 5844 5843 5841 5840 5838 5836 5834 5832 5829 5827 5825 5822 5819
5875 5876 5876 5875 5874 5872 5872 5872 5872 5872 5871 5870 5869 5868 5867 5864 5862 5861 5860 5858 5856 5854 5852 5850 5848 5846 5845 5843 5842 5840 5839 5837 5836 5834 5832 5830 5827 5825 5823 5820 5818 5815 5812
5869 5869 5869 5869 5867 5866 5867 5866 5866 5866 5865 5864 5863 5862 5861 5859 5857 5856 5854 5852 5850 5849 5847 5845 5843 5841 5839 5838 5836 5834 5833 5831 5829 5828 5825 5823 5821 5818 5816 5813 5810 5808 5805
5863 5863 5863 5863 5862 5862 5862 5861 5861 5860 5859 5858 5857 5856 5855 5854 5852 5850 5849 5846 5845 5843 5841 5839 5837 5835 5834 5832 5830 5828 5827 5825 5823 5821 5819 5816 5814 5811 5809 5806 5803 5800 5797
5857 5856 5856 5856 5856 5856 5856 5855 5855 5854 5853 5852 5851 5850 5849 5848 5846 5845 5843 5841 5839 5836 5835 5833 5831 5829 5828 5826 5824 5822 5820 5818 5816 5814 5812 5809 5807 5804 5801 5799 5796 5793 5790
5850 5850 5849 5849 5849 5849 5849 5849 5848 5848 5847 5846 5845 5844 5843 5842 5841 5839 5837 5835 5833 5831 5829 5827 5825 5823 5821 5819 5817 5815 5814 5812 5809 5807 5805 5802 5800 5797 5794 5791 5789 5786 5783
5843 5843 5843 5843 5843 5842 5842 5842 5842 5842 5841 5840 5839 5838 5837 5836 5834 5833 5831 5829 5827 5824 5822 5820 5818 5816 5814 5812 5811 5809 5807 5804 5802 5800 5797 5795 5792 5789 5787 5784 5781 5778 5776